Location: Unspecified
(0.0000°N, 0.0000°E)
Time: 07:40:07
(UTC+00:00)

deb NOAA 5 - Pass Details

Date: 15 February 2026
Orbit: 1470 x 1835 km, 102.5° (Epoch: 10 March)

Event Time Altitude Azimuth Distance (km) Brightness Sun altitude
Rises 20:51:55 0° 164° (SSE) 4,839 ? -38.4°
Reaches altitude 10° 20:54:52 10° 164° (SSE) 3,806 ? -39.1°
Enters shadow 20:57:29 22° 164° (SSE) 2,919 ? -39.7°
Exits shadow 21:13:57 - 343° (NNW) 4,236 ? -43.6°
Sets 21:14:54 0° 343° (NNW) 4,574 ? -43.9°
